Regional Weather Roundup
Issued by NWS Upton, NY

Current Version | Previous Version | Text Only | Print | Product List | Glossary On
Versions: 1 2 3 4 5 6 7 8 9 10 11 12 13 14 15 16 17 18 19 20 21 22 23 24 25 26 27
000
ASUS41 KOKX 231408
RWROKX

REGIONAL WEATHER ROUNDUP
NATIONAL WEATHER SERVICE NEW YORK NY
900 AM EST THU FEB 23 2017

NOTE: "FAIR" INDICATES FEW OR NO CLOUDS BELOW 12,000 FEET WITH NO
SIGNIFICANT WEATHER AND/OR OBSTRUCTIONS TO VISIBILITY.

NYZ071-072-176-178-NJZ106-104-231500-
NEW YORK CITY METRO AREA

CITY           SKY/WX    TMP DP  RH WIND       PRES   REMARKS
Central Park   CLOUDY    49  45  86 W6        29.93S FOG
Wall St Helipt NOT AVBL
LaGuardia APRT CLOUDY    48  43  82 CALM      29.92R HAZE
Kennedy INTL   FOG       44  44 100 S5        29.93R VSB 1/4
Breezy Point     N/A     43 N/A N/A W1          N/A
Newark/Liberty DRZL/FOG  46  45  96 SW5       29.91S VSB 1
Teterboro      CLOUDY    47  41  80 SE3       29.91S
$$

NYZ177-179-078>081-231500-
LONG ISLAND NEW YORK

CITY           SKY/WX    TMP DP  RH WIND       PRES   REMARKS
Jones Beach      N/A     43 N/A N/A SW5         N/A
Matinecock PT    N/A     37 N/A N/A E2          N/A
Farmingdale    CLOUDY    45  44  97 SW7       29.92R FOG
MacArthur/ISP  FOG       45  45 100 SW7       29.91S VSB 1/16
Shirley        FOG       45  45 100 S7        29.92S VSB<1/4
Westhampton    FOG       45  44  97 S6        29.93S VSB 1/4
Southampton      N/A     43  43 100 SW5       29.89S
Bridgehampton  NOT AVBL
East Hampton   FOG       45  45  99 SW7       29.91S VSB 1/4
Montauk          N/A     48  46  93 S8        29.92S
$$

NYZ052-065-067-231500-
HUDSON VALLEY

CITY           SKY/WX    TMP DP  RH WIND       PRES   REMARKS
White Plains   MOSUNNY   48  42  80 SW7       29.89S HAZE
Newburgh       SUNNY     48  43  81 CALM      29.89S
Montgomery     SUNNY     46  41  82 S8        29.86F
Poughkeepsie   SUNNY     46  40  79 SE3       29.88S
Albany         MOSUNNY   48  38  68 S14       29.82F
$$

NJZ001-105-106-008-010-013-015-019>022-104-231500-
NEW JERSEY

CITY           SKY/WX    TMP DP  RH WIND       PRES   REMARKS
Newark/Liberty DRZL/FOG  46  45  96 SW5       29.91S VSB 1
Teterboro      CLOUDY    47  41  80 SE3       29.91S
Caldwell       CLOUDY    44  39  82 CALM      29.91F
Somerville     CLOUDY    41  40  96 CALM      29.89S FOG
Linden         NOT AVBL
Sussex         SUNNY     43  41  93 CALM      29.88F
Andover          N/A     42  39  89 CALM      29.89F
Trenton        FOG       49  49 100 CALM      29.90S VSB 1/4
Millville      SUNNY     53  53 100 VRB3      29.92S
Atlantic City  CLOUDY    54  50  86 SW7       29.92S
Wrightstown    CLOUDY    50  50  99 SW6       29.89S
Toms River     CLOUDY    49  48  97 CALM      29.93S FOG
Belmar         CLOUDY    50  50 100 SW7       29.92S
$$

PAZ047>061-062-071-231500-
EASTERN PENNSYLVANIA

CITY           SKY/WX    TMP DP  RH WIND       PRES   REMARKS
Philadelphia   CLOUDY    51  50  96 S5        29.92S FOG
Allentown      CLOUDY    44  39  82 CALM      29.89F HAZE
Scranton       MOSUNNY   48  41  76 NE5       29.84F
$$

CTZ002-004>006-009-010-012-RIZ004-006-007-MAZ004-011-015-231500-
SOUTHERN NEW ENGLAND
 IN CT

CITY           SKY/WX    TMP DP  RH WIND       PRES   REMARKS
Bradley INTL   MOSUNNY   46  39  76 VRB5      29.89R
Hartford       SUNNY     48  42  80 S6        29.89F
Danbury        SUNNY     43  39  86 CALM      29.91S
Wtrbury/Oxford SUNNY     46  39  76 SW6       29.91R FOG
Bridgeport     FOG       42  41  96 CALM      29.91S VSB 1/2
Meriden        FOG       41  39  93 S5        29.91S VSB 1/4
New Haven      PTSUNNY   39  39 100 CALM      29.91S FOG
Chester          N/A     46  45  93 SW7G13    29.90S
Groton         MOSUNNY   42  41  96 CALM      29.91S
Wilimantic     SUNNY     43  35  73 CALM      29.91S

 IN RI

CITY           SKY/WX    TMP DP  RH WIND       PRES   REMARKS
Providence     MOSUNNY   46  40  79 SE3       29.90R
Block Island   NOT AVBL
Westerly       PTSUNNY   43  41  93 W3        29.91F
 IN MA

CITY           SKY/WX    TMP DP  RH WIND       PRES   REMARKS
Boston         MOSUNNY   45  40  82 S7        29.88R
Worcester      SUNNY     49  38  65 SW12      29.86R
Westfield      MOSUNNY   41  35  79 SW5       29.88R
Provincetown   CLOUDY    41  40  96 S9        29.90S FOG
Nantucket      PTSUNNY   45  44  97 SW12      29.93R
$$

ANZ330-335-338-340-345-350-353-355-231500-
COASTAL MARINE OBSERVATIONS


STATION/POSITION TIME  SKY/WX   TEMP    WIND        PRES    VSBY  WAVE
                                AIR SEA DIR/SP/G                  HT/PER
                 (UTC)          (F)     (DEG/KT/KT) (MB)    (MI)  (FT/S)
NY HARB ENTRANCE 1250            42 42  200/  8/  8 1012.6          3/11
20 S FIRE ISLAND 1350            44 43  200/  8/ 10 1013.1          3/10
GREAT SOUTH BAY  NOT AVBL
23 SSW MONTAUK P 1250            45 44              1013.6          3/10
15 E BARNEGAT LI 1330               43                N/A           3/11
HUDSON CANYON    1250               49              1014.0          3/11
KINGS POINT      1342            39 38              1013.0
EXECUTION ROCKS  NOT AVBL
CENTRAL LI SOUND NOT AVBL
EASTERN LI SOUND NOT AVBL
ROBBINS REEF     1348            44     290/  2/  2 1013.3
$$


>>>>>>>>>>>>>>>>>>>>>>>>>>>> KEY <<<<<<<<<<<<<<<<<<<<<<<<<<<
>                                                          <
>     SKY/WX - Sky Condition/Present Weather               <
>     TMP    - Temperature in Fahrenheit                   <
>     DP     - Dew Point in Fahrenheit                     <
>     RH     - Relative Humidity in Percent                <
>     WIND   - Direction (from) and Speed in MPH           <
>     PRES   - Mean Sea Level Pressure (inches of Hg)      <
>     WCI    - Wind Chill Index                            <
>     VSB    - VISIBILITY IN MILES                         <
>     HX     - HEAT INDEX                                  <
>     TC     - TEMPERATURE IN CELSIUS                      <
>     VRB    - VARIABLE WIND DIRECTION                     <
>                                                          <
>>>>>>>>>>>>>>>>>>>>>>>>>>>> KEY <<<<<<<<<<<<<<<<<<<<<<<<<<<




USA.gov is the U.S. government's official web portal to all federal, state and local government web resources and services.